STARLINK-2635

operational
NORAD ID: 48355 Int'l Des: 2021-038 Owner: SPXS Country: US Constellation: starlink
LEOCIRCULARSTARLINK_TYPE

STARLINK-2635について

説明を読み込み中...

リアルタイム位置

3D地球を読み込み中...

次回通過

高度履歴

Altitude vs Time

uPlot chart will show altitude changes over time

軌道要素

1 48355U 21038C 25251.87065673 .00003128 00000-0 22876-3 0 9998
2 48355 53.0538 97.8337 0001362 89.9829 270.1316 15.06402296239622
Epoch: Sep 8, 2025 • Age: 10 hours

現在のステータス

高度 550.0 km
速度 7.59 km/s
衛星直下点 39.58°N, 45.39°E
打ち上げ日 May 4, 2021
運用期間 4.3 years
タイプ internet

技術仕様

分類 Payload
質量 260.00 kg
乾燥質量 248.00 kg
総質量 260.00 kg
長さ 0.20 m
直径 2.80 m
スパン 9.00 m
形状 Box + pan
製造者 SPXS
バスタイプ Starlink
フェーズステータス In Orbit
所有者/国 SPXS/US

大規模コンステレーション

Loading constellations...